[[{"header":{"parameterUnit":"m.s-1","parameterCategory":1,"la1":30.2991,"la2":30.254,"lo1":-89.0895,"lo2":-89.0444,"dy":0.0017,"dx":0.0017,"nx":28,"ny":28,"refTime":"2024-07-02T21:00:00:Z","depth":0,"parameterNumber":2,"parameterNumberName":"U-component_of_WINDS"},"data":[0,0,0,0,0,0,0,0,0,0,0,0,0,0,0,0,0,0,0,0,0,0,0,0,0,0,0,0,0,0,0,0,0,0,0,0,0,0,0,0,0,0,0,0,0,0,0,0,0,0,0,0,0,0,0,0,0,0,1.0226,1.0227,0,1.0385,1.0387,1.0388,1.0463,1.0463,1.0463,1.0463,1.0629,1.0633,1.0638,0,0,0,0,0,0,0,0,0,0,0,0,0,0.9989,0.9993,1.0226,1.0228,1.023,1.0384,1.0387,1.0389,1.0463,1.0463,1.0463,1.0463,1.0627,1.0633,1.0638,0,0,0,0,0,0,0,0,0,0,0,0,0,1.0114,0.9994,1.0225,1.0285,1.0292,1.0384,1.0387,1.0389,1.0463,1.0463,1.0463,1.0463,1.0626,1.0632,1.0639,1.0684,0,0,1.066,1.0663,0,0,0,0,0,0,0,0,1.0107,1.0123,1.0275,1.0281,1.0289,1.0404,1.0364,1.0488,1.0464,1.0399,1.0463,1.0463,1.0554,1.0567,1.0597,1.0692,1.0699,1.066,1.0664,1.0667,1.0669,0,0,0,0,0,0,0,1.0099,1.0117,1.0289,1.0277,1.0286,1.0305,1.0323,1.0388,1.0476,1.0404,1.041,1.0428,1.0558,1.0591,1.0602,1.0701,1.066,1.0666,1.067,1.0673,1.0841,1.0842,0,0,0,0,0,0,1.008,1.0109,1.0284,1.0293,1.0196,1.031,1.0329,1.0367,1.0475,1.0491,1.0428,1.0431,1.0579,1.0594,1.0608,1.0668,1.0667,1.0674,1.0677,1.0841,1.0841,1.0842,0,0,0,0,0,0,1.0074,1.0095,1.0277,1.0203,1.0228,1.0314,1.0356,1.0371,1.0403,1.0493,1.0509,1.0444,1.058,1.0598,1.0664,1.0675,1.0677,1.0683,1.084,1.0841,1.0842,1.0788,0,0,0,0,0,0,1.0067,1.0092,1.0109,1.0203,1.0231,1.033,1.0357,1.0374,1.0414,1.0419,1.0513,1.0528,1.0581,1.0654,1.0671,1.0684,1.0688,1.084,1.0841,1.0842,1.079,1.0787,1.0785,0,0,0,0,0,1.0058,1.0088,1.011,1.013,1.0254,1.033,1.0347,1.0406,1.0414,1.0433,1.0491,1.0525,1.0671,1.066,1.068,1.0695,1.084,1.0841,1.0841,1.0791,1.0788,1.0785,0,0,0,0,0,0,0.9994,1.0101,1.0126,1.0187,1.0249,1.0343,1.0368,1.0401,1.0463,1.0465,1.0537,1.0558,1.0618,1.0663,1.0649,1.0745,1.0759,1.0763,1.0713,1.0711,1.0709,1.0697,1.0694,0,0,0,0,0,0.9987,1.0039,1.013,1.0175,1.0205,1.0281,1.0316,1.0357,1.0424,1.0451,1.0513,1.0578,1.0639,1.0677,1.0738,1.0797,1.0819,1.0817,1.0815,1.0812,1.0816,1.0851,1.0852,1.0845,1.0845,1.0845,0,0,0.9973,1.0038,1.0066,1.0164,1.0216,1.027,1.0302,1.0357,1.0397,1.0459,1.0525,1.0574,1.0651,1.0713,1.0744,1.0753,1.0823,1.0814,1.0811,1.0816,1.0852,1.0853,1.0853,1.0846,1.0846,1.0845,0,0,0.9974,1.0028,1.0072,1.0124,1.0203,1.0254,1.0264,1.0353,1.0387,1.0455,1.0503,1.0552,1.0655,1.0708,1.0749,1.0771,1.0805,1.0789,1.0777,1.0811,1.0811,1.0812,1.0821,1.0823,1.0792,1.0792,1.0792,0,0.9947,1.0028,1.009,1.0143,1.0185,1.0242,1.0288,1.0336,1.0431,1.0459,1.0468,1.0598,1.0654,1.073,1.0736,1.0766,1.0782,1.0779,1.0806,1.0808,1.0809,1.0819,1.0822,1.079,1.079,1.079,1.0791,0,0.9991,1.0047,1.0073,1.0162,1.0207,1.0256,1.0326,1.0364,1.0401,1.0451,1.0519,1.0589,1.0665,1.0686,1.0723,1.0768,1.0771,1.0792,1.0807,1.0806,1.0816,1.082,1.0786,1.0787,1.0788,1.0788,0,0,0.9956,1.008,1.0089,1.0131,1.0223,1.0267,1.0319,1.0393,1.0424,1.0488,1.0534,1.062,1.064,1.0686,1.0729,1.0758,1.0773,1.0776,1.0779,1.0774,1.0828,1.0812,1.0815,1.0796,1.0797,1.0797,1.0822,0,0.9971,1.0065,1.0123,1.0194,1.0247,1.0303,1.0349,1.041,1.0459,1.0511,1.0565,1.0625,1.0646,1.0674,1.0706,1.0764,1.0785,1.0763,1.084,1.0842,1.0819,1.082,1.0803,1.0823,1.0826,1.0827,1.0827,0,1.0,1.0062,1.0139,1.0226,1.025,1.0289,1.0362,1.0412,1.0483,1.0517,1.0568,1.0611,1.0669,1.0679,1.0761,1.0745,1.078,1.0813,1.0816,1.0826,1.0835,1.0831,1.0831,1.0834,1.0834,1.0833,1.0833,0,0.9968,1.0071,1.013,1.0164,1.0267,1.0293,1.0338,1.0409,1.045,1.0514,1.0542,1.0611,1.065,1.0704,1.0766,1.0767,1.0841,1.0856,1.0871,1.087,1.0885,1.0883,1.0891,1.0906,1.0906,1.0906,1.0906,0,0.9979,1.0023,1.0117,1.0153,1.0206,1.0272,1.0323,1.0371,1.0435,1.0483,1.0536,1.0579,1.0658,1.0712,1.0761,1.0822,1.0839,1.0868,1.088,1.0863,1.086,1.0888,1.0888,1.0907,1.0907,1.0906,1.0906,0,0.9951,1.0016,1.0084,1.0176,1.02,1.0235,1.0314,1.0352,1.0403,1.0463,1.0481,1.0561,1.0627,1.0694,1.0784,1.0817,1.0877,1.0893,1.0852,1.0859,1.0871,1.0869,1.0897,1.0905,1.0914,1.0914,1.0913,0,0.9954,0.999,1.0085,1.0121,1.0164,1.022,1.0262,1.033,1.0371,1.0456,1.0484,1.0554,1.0614,1.0718,1.0785,1.0854,1.0873,1.0878,1.0884,1.0866,1.0874,1.0871,1.0876,1.0876,1.0876,1.0875,1.0875,0,0.9952,0.9982,1.004,1.011,1.0159,1.0217,1.0277,1.0303,1.0383,1.0427,1.0495,1.0542,1.0633,1.0702,1.078,1.0826,1.0864,1.0873,1.088,1.0863,1.0838,1.0853,1.0846,1.0872,1.0872,1.0872,1.0872,1.0873,0.994,0.9975,1.0048,1.0111,1.0164,1.0219,1.026,1.0316,1.0373,1.0453,1.0489,1.0558,1.063,1.0738,1.0784,1.0839,1.0849,1.086,1.0862,1.0864,1.086,1.0828,1.0853,1.0853,1.0854,1.0854,1.0854,0,0.9942,0.9991,1.0049,1.0132,1.0182,1.0212,1.0281,1.0321,1.0381,1.0444,1.0502,1.0581,1.0649,1.0721,1.0793,1.0824,1.0843,1.0841,1.0839,1.085,1.0847,1.0834,1.0824,1.0824,1.0824,1.0824,1.0824,1.0824,0.9948,1.0009,1.0048,1.0136,1.0186,1.0253,1.029,1.0341,1.0393,1.0478,1.0534,1.0581,1.0649,1.0726,1.079,1.081,1.0834,1.0827,1.0852,1.0848,1.085,1.0852,1.084,1.0832,1.0832,1.085,1.085,1.085]},{"header":{"parameterUnit":"m.s-1","parameterCategory":1,"la1":30.2991,"la2":30.254,"lo1":-89.0895,"lo2":-89.0444,"dy":0.0017,"dx":0.0017,"nx":28,"ny":28,"refTime":"2024-07-02T21:00:00:Z","depth":0,"parameterNumber":3,"parameterNumberName":"V-component_of_WINDS"},"data":[0,0,0,0,0,0,0,0,0,0,0,0,0,0,0,0,0,0,0,0,0,0,0,0,0,0,0,0,0,0,0,0,0,0,0,0,0,0,0,0,0,0,0,0,0,0,0,0,0,0,0,0,0,0,0,0,0,0,4.8028,4.8028,0,4.8008,4.8008,4.8007,4.798,4.7979,4.7979,4.7978,4.7957,4.7957,4.7956,0,0,0,0,0,0,0,0,0,0,0,0,0,4.8042,4.8042,4.8028,4.8028,4.8027,4.8008,4.8008,4.8007,4.798,4.7979,4.7978,4.7978,4.7957,4.7957,4.7956,0,0,0,0,0,0,0,0,0,0,0,0,0,4.803,4.8042,4.8028,4.8011,4.8009,4.8008,4.8008,4.8007,4.798,4.7979,4.7978,4.7978,4.7957,4.7957,4.7956,4.7969,0,0,4.7956,4.7956,0,0,0,0,0,0,0,0,4.8031,4.803,4.8014,4.8012,4.801,4.7995,4.8005,4.7994,4.798,4.7991,4.7978,4.7977,4.797,4.7969,4.7967,4.7968,4.7967,4.7956,4.7956,4.7956,4.7956,0,0,0,0,0,0,0,4.8032,4.803,4.802,4.8014,4.8012,4.8005,4.8002,4.8003,4.7985,4.799,4.7988,4.7986,4.7969,4.7967,4.7966,4.7967,4.7956,4.7956,4.7956,4.7955,4.7978,4.7979,0,0,0,0,0,0,4.8035,4.8031,4.802,4.8019,4.8019,4.8005,4.8002,4.8001,4.7985,4.7982,4.7987,4.7985,4.7967,4.7966,4.7965,4.7979,4.7956,4.7955,4.7955,4.7978,4.7979,4.7979,0,0,0,0,0,0,4.8035,4.8034,4.8021,4.8025,4.8022,4.8005,4.8004,4.8001,4.7999,4.7982,4.7979,4.7988,4.7967,4.7965,4.7969,4.7978,4.7955,4.7955,4.7977,4.7978,4.7979,4.8007,0,0,0,0,0,0,4.8036,4.8035,4.8039,4.8025,4.8022,4.8025,4.8005,4.8001,4.7998,4.7996,4.7982,4.7979,4.7966,4.7969,4.7968,4.7977,4.7955,4.7976,4.7977,4.7979,4.8005,4.8009,4.8012,0,0,0,0,0,4.8037,4.8048,4.804,4.8039,4.8028,4.8026,4.8024,4.8009,4.7999,4.8004,4.7993,4.798,4.7977,4.797,4.7969,4.7977,4.7975,4.7977,4.7979,4.8003,4.8008,4.8012,0,0,0,0,0,0,4.8063,4.8045,4.8036,4.8043,4.8036,4.8021,4.8026,4.8015,4.801,4.8008,4.799,4.7987,4.7992,4.7985,4.7977,4.7989,4.7974,4.7976,4.7993,4.7997,4.8001,4.8002,4.7955,0,0,0,0,0,4.807,4.807,4.8054,4.8062,4.8059,4.8044,4.8042,4.8031,4.8023,4.802,4.801,4.8002,4.8,4.7998,4.7995,4.8004,4.8001,4.801,4.8013,4.8016,4.8017,4.8022,4.8026,4.7985,4.7985,4.7985,0,0,4.8084,4.8074,4.8075,4.8067,4.806,4.8061,4.8041,4.8042,4.8042,4.802,4.8022,4.8015,4.8005,4.8012,4.8014,4.8006,4.8028,4.8018,4.8021,4.802,4.8024,4.8028,4.8031,4.7986,4.7986,4.7986,0,0,4.8108,4.8101,4.8107,4.8101,4.8091,4.8081,4.8082,4.8069,4.8063,4.8066,4.8049,4.8049,4.8045,4.8039,4.8035,4.8059,4.8046,4.8059,4.8077,4.8081,4.8084,4.8087,4.8095,4.8099,4.806,4.806,4.806,0,4.8126,4.8126,4.8111,4.8113,4.811,4.8091,4.8096,4.8091,4.8081,4.8079,4.8071,4.8066,4.8058,4.8063,4.8069,4.8067,4.8068,4.806,4.8085,4.8088,4.809,4.8098,4.8101,4.8062,4.8062,4.8062,4.8062,0,4.8149,4.8149,4.8155,4.8146,4.8144,4.8147,4.8133,4.8132,4.8122,4.8113,4.8116,4.8106,4.8101,4.8101,4.8091,4.8104,4.81,4.8089,4.8073,4.8096,4.8103,4.8106,4.8064,4.8064,4.8063,4.8063,0,0,4.8189,4.8172,4.8174,4.817,4.8159,4.8159,4.8162,4.8157,4.8157,4.8151,4.8153,4.8151,4.814,4.8136,4.8125,4.813,4.8149,4.8118,4.8117,4.8124,4.8163,4.8171,4.8175,4.8141,4.8141,4.8142,4.8164,0,4.8211,4.8216,4.8202,4.821,4.821,4.8192,4.8195,4.8188,4.818,4.8179,4.817,4.8168,4.8155,4.8152,4.8156,4.8146,4.8157,4.8144,4.8142,4.8142,4.8144,4.8179,4.8187,4.8208,4.8167,4.8167,4.8167,0,4.8237,4.8233,4.8241,4.823,4.8229,4.8232,4.8226,4.8226,4.8218,4.8212,4.8208,4.8195,4.8198,4.8184,4.8187,4.8178,4.8177,4.8172,4.8173,4.8171,4.8156,4.8178,4.8215,4.8218,4.8171,4.8171,4.8171,0,4.8265,4.8262,4.8266,4.8263,4.825,4.8252,4.8247,4.8238,4.8236,4.8232,4.823,4.8226,4.8224,4.8221,4.8208,4.8199,4.8212,4.8197,4.8207,4.8207,4.821,4.821,4.8247,4.821,4.821,4.821,4.821,0,4.8291,4.8297,4.8278,4.8281,4.8287,4.8272,4.8278,4.827,4.8263,4.8264,4.8249,4.825,4.8233,4.8232,4.8222,4.8226,4.8225,4.822,4.8217,4.8221,4.8222,4.8219,4.8217,4.8211,4.821,4.821,4.821,0,4.8323,4.8311,4.8314,4.8302,4.8299,4.8304,4.8293,4.8295,4.8286,4.8287,4.8287,4.8273,4.8271,4.8258,4.8254,4.8247,4.8255,4.8249,4.8257,4.8255,4.8266,4.8265,4.8302,4.8306,4.8267,4.8268,4.8268,0,4.834,4.8344,4.8332,4.8332,4.8327,4.8327,4.8325,4.831,4.8309,4.8301,4.8304,4.8301,4.8298,4.8297,4.8286,4.8283,4.8277,4.829,4.8276,4.828,4.8276,4.8276,4.8276,4.8293,4.8293,4.8294,4.8294,0,4.8371,4.8365,4.8363,4.836,4.8358,4.8354,4.8349,4.835,4.8334,4.8334,4.8332,4.833,4.8326,4.8323,4.8318,4.8312,4.8301,4.8299,4.8301,4.8304,4.8309,4.8306,4.8265,4.8298,4.8297,4.8297,4.8297,4.8297,4.8395,4.8398,4.8391,4.8389,4.8384,4.838,4.8382,4.8373,4.8372,4.8367,4.8359,4.8359,4.8352,4.8344,4.8339,4.8339,4.8332,4.8335,4.8335,4.8336,4.8338,4.831,4.8338,4.8338,4.8337,4.8337,4.8337,0,4.8426,4.842,4.8419,4.8413,4.8412,4.8402,4.8396,4.8396,4.8396,4.839,4.8388,4.8387,4.8384,4.8374,4.8371,4.8372,4.8367,4.8372,4.8371,4.837,4.8345,4.8343,4.8376,4.8376,4.8376,4.8376,4.8376,4.8376,4.8441,4.8445,4.8439,4.844,4.8435,4.8434,4.8432,4.8429,4.8424,4.8423,4.8422,4.8415,4.8407,4.8404,4.8401,4.8398,4.8398,4.8404,4.84,4.8376,4.8372,4.8368,4.8367,4.8404,4.8404,4.8425,4.8425,4.8425]}]]